Weather History for PACV - March, 2013

Change the Weather History Date:

Monday, March 11, 2013

  Actual Average (WUND) Record (WUND)
Temperature  
Mean Temperature 36 °F -  
Max Temperature 44 °F - - (-1)
Min Temperature 28 °F - - (-1)
Degree Days  
Heating Degree Days 29    
Moisture  
Dew Point 19 °F    
Average Humidity 54    
Maximum Humidity 92    
Minimum Humidity 28    
Precipitation  
Precipitation 0.00 in - - ()
Snow  
Snow 0.00 in - - ()
Snow Depth 3.00 in    
Sea Level Pressure  
Sea Level Pressure 30.12 in    
Wind  
Wind Speed 4 mph (NNE)    
Max Wind Speed 9 mph    
Max Gust Speed 18 mph    
Visibility 10 miles    
Events      
Averages and records for this station are not official NWS values.
T = Trace of Precipitation, MM = Missing Value Source: NWS Daily Summary

Daily Weather History Graph

Daily Weather History Graph

Search for Another Location

Airport or City:

Trip Planner

Search our weather history database for the weather conditions in past years. The results will help you decide how hot, cold, wet, or windy it might be!

Date:

Astronomy

Mar. 11, 2013 Rise Set
Actual Time 8:09 AM AKDT 7:35 PM AKDT
Civil Twilight 7:27 AM AKDT 8:17 PM AKDT
Nautical Twilight 6:38 AM AKDT 9:06 PM AKDT
Astronomical Twilight 5:46 AM AKDT 9:59 PM AKDT
Moon 7:39 AM AKDT (3/11) 8:15 PM AKDT (3/11)
Length of Visible Light 12h 49m
Length of Day
11h 25m
New Moon, 0% of the Moon is Illuminated
Mar 11
New Moon
Mar 19
First Quarter
Mar 27
Full
Apr 2
Last Quarter
Apr 10
New

Hourly Weather History & Observations

Time (AKDT) Temp. Windchill Dew Point Humidity Pressure Visibility Wind Dir Wind Speed Gust Speed Precip Events Conditions
12:53 AM 35.1 °F 28.6 °F 26.1 °F 70% 30.17 in 10.0 mi ENE 8.1 mph - N/A   Overcast
1:53 AM 35.1 °F 31.0 °F 25.0 °F 67% 30.17 in 10.0 mi ESE 4.6 mph - N/A   Overcast
2:53 AM 32.0 °F 27.5 °F 25.0 °F 75% 30.16 in 10.0 mi NW 4.6 mph - N/A   Scattered Clouds
3:53 AM 30.0 °F 26.5 °F 27.0 °F 88% 30.16 in 10.0 mi NNW 3.5 mph - N/A   Overcast
4:53 AM 30.0 °F - 27.0 °F 88% 30.14 in 10.0 mi Calm Calm - N/A   Overcast
5:53 AM 28.9 °F - 26.1 °F 89% 30.13 in 10.0 mi Calm Calm - N/A   Overcast
6:53 AM 28.0 °F - 26.1 °F 92% 30.13 in 10.0 mi Calm Calm - N/A   Partly Cloudy
7:53 AM 28.0 °F - 25.0 °F 88% 30.13 in 10.0 mi Calm Calm - N/A   Scattered Clouds
8:53 AM 28.9 °F - 25.0 °F 85% 30.13 in 10.0 mi Calm Calm - N/A   Partly Cloudy
9:53 AM 34.0 °F - 27.0 °F 75% 30.12 in 10.0 mi Calm Calm - N/A   Mostly Cloudy
10:53 AM 37.9 °F - 25.0 °F 60% 30.12 in 10.0 mi Calm Calm - N/A   Mostly Cloudy
11:53 AM 43.0 °F - 15.1 °F 32% 30.10 in 10.0 mi Calm Calm - N/A   Mostly Cloudy
12:53 PM 43.0 °F 38.8 °F 14.0 °F 31% 30.10 in 10.0 mi Variable 6.9 mph - N/A   Mostly Cloudy
1:53 PM 44.1 °F 39.5 °F 12.9 °F 28% 30.10 in 10.0 mi NE 8.1 mph - N/A   Mostly Cloudy
2:53 PM 43.0 °F 37.7 °F 14.0 °F 31% 30.10 in 10.0 mi NE 9.2 mph 18.4 mph N/A   Mostly Cloudy
3:53 PM 42.1 °F 36.6 °F 12.9 °F 31% 30.09 in 10.0 mi ENE 9.2 mph 17.3 mph N/A   Scattered Clouds
4:53 PM 42.1 °F 37.1 °F 12.9 °F 31% 30.09 in 10.0 mi NE 8.1 mph - N/A   Scattered Clouds
5:53 PM 41.0 °F 36.4 °F 12.0 °F 31% 30.09 in 10.0 mi NE 6.9 mph - N/A   Scattered Clouds
6:53 PM 39.9 °F - 12.9 °F 33% 30.09 in 10.0 mi Calm Calm - N/A   Scattered Clouds
7:53 PM 37.9 °F 34.4 °F 10.9 °F 33% 30.09 in 10.0 mi North 4.6 mph - N/A   Partly Cloudy
8:53 PM 37.9 °F 32.7 °F 9.0 °F 30% 30.08 in 10.0 mi NNE 6.9 mph - N/A   Partly Cloudy
10:53 PM 35.1 °F 31.0 °F 9.0 °F 34% 30.08 in 10.0 mi North 4.6 mph - N/A   Clear
11:53 PM 35.1 °F 29.3 °F 7.0 °F 31% 30.08 in 10.0 mi NNE 6.9 mph - N/A   Clear